CW0121 Weather Reports


time (UTC)temp
C
wind
direction
speed
KPH
gust
KPH
rain 1hr
cm
rain 24hr
cm
rain mn
cm
humidity
%
barometer
mb
20260906203028 26 194 3.2 8.0 0.00 0.00 0.00 65 1015.6
20260906203022 26 193 3.2 8.0 0.00 0.00 0.00 65 1011.1
20260906202513 26 212 4.8 6.4 0.00 0.00 0.00 66 1015.7
20260906202018 26 255 4.8 8.0 0.00 0.00 0.00 64 1015.7
20260906201531 26 220 3.2 8.0 0.00 0.00 0.00 67 1015.9
20260906201520 26 230 3.2 8.0 0.00 0.00 0.00 67 1011.3
20260906201017 26 227 1.6 8.0 0.00 0.00 0.00 70 1016.1
20260906200517 26 231 4.8 12.9 0.00 0.00 0.00 69 1016.1
20260906200032 26 217 6.4 12.9 0.00 0.00 0.00 71 1016.0
20260906200020 26 238 4.8 12.9 0.00 0.00 0.00 70 1011.4
20260906195505 25 228 6.4 12.9 0.00 0.00 0.00 68 1016.1
20260906195010 25 226 6.4 14.5 0.00 0.00 0.00 69 1016.1
20260906194520 25 275 6.4 16.1 0.00 0.00 0.00 69 1016.1
20260906194009 25 214 9.7 16.1 0.00 0.00 0.00 68 1016.0
20260906193514 25 242 4.8 11.3 0.00 0.00 0.00 70 1015.9
20260906193026 25 253 4.8 14.5 0.00 0.00 0.00 70 1016.1
20260906193018 25 221 4.8 14.5 0.00 0.00 0.00 71 1011.4
20260906192512 25 288 9.7 14.5 0.00 0.00 0.00 69 1016.2
20260906192014 25 240 9.7 14.5 0.00 0.00 0.00 70 1016.2
20260906191531 25 243 9.7 14.5 0.00 0.00 0.00 69 1016.2
20260906191517 25 248 8.0 14.5 0.00 0.00 0.00 69 1011.7
20260906191015 25 228 8.0 14.5 0.00 0.00 0.00 69 1016.2
20260906190518 25 240 6.4 14.5 0.00 0.00 0.00 71 1016.2
20260906190034 25 239 4.8 12.9 0.00 0.00 0.00 71 1016.2
20260906190015 25 276 3.2 12.9 0.00 0.00 0.00 72 1011.5
20260906185516 25 278 3.2 12.9 0.00 0.00 0.00 72 1016.2
20260906185015 25 238 8.0 14.5 0.00 0.00 0.00 69 1016.3
20260906184531 25 259 1.6 14.5 0.00 0.00 0.00 71 1016.2
20260906184515 25 34 1.6 14.5 0.00 0.00 0.00 71 1011.6
20260906184007 25 276 3.2 14.5 0.00 0.00 0.00 72 1016.3
20260906183512 25 300 6.4 14.5 0.00 0.00 0.00 72 1016.4
20260906183026 25 274 4.8 11.3 0.00 0.00 0.00 76 1016.7
20260906183017 25 248 4.8 11.3 0.00 0.00 0.00 76 1011.9
20260906182514 25 308 3.2 14.5 0.00 0.00 0.00 77 1016.8
20260906182018 25 236 8.0 14.5 0.00 0.00 0.00 75 1016.9
20260906181539 25 267 8.0 14.5 0.00 0.00 0.00 76 1016.8
20260906181512 25 235 6.4 14.5 0.00 0.00 0.00 77 1012.1
20260906181016 25 248 6.4 16.1 0.00 0.00 0.00 76 1016.6
20260906180517 25 266 8.0 17.7 0.00 0.00 0.00 76 1016.6
20260906180047 26 247 11.3 19.3 0.00 0.00 0.00 75 1016.3
20260906180011 26 238 11.3 19.3 0.00 0.00 0.00 76 1011.7
20260906175517 26 252 11.3 19.3 0.00 0.00 0.00 77 1016.2
20260906175016 26 257 6.4 17.7 0.00 0.00 0.00 79 1016.0
20260906174534 26 266 8.0 19.3 0.00 0.00 0.00 80 1015.9
20260906174511 26 259 6.4 19.3 0.00 0.00 0.00 81 1011.2
20260906174021 26 249 9.7 19.3 0.00 0.00 0.00 80 1016.0
20260906173520 26 236 8.0 19.3 0.00 0.00 0.00 81 1016.2
20260906173034 26 215 9.7 19.3 0.00 0.00 0.00 81 1016.2
20260906173010 26 259 9.7 19.3 0.00 0.00 0.00 82 1011.5
20260906172513 26 245 6.4 17.7 0.00 0.00 0.00 82 1016.3
20260906172009 26 241 6.4 17.7 0.00 0.00 0.00 82 1016.4
20260906171525 26 235 9.7 20.9 0.00 0.00 0.00 83 1016.5
20260906171510 26 205 9.7 20.9 0.00 0.00 0.00 83 1011.6
20260906171011 26 223 11.3 20.9 0.00 0.00 0.00 82 1016.4
20260906170515 26 248 8.0 17.7 0.00 0.00 0.00 84 1016.4
20260906170028 26 219 8.0 19.3 0.00 0.00 0.00 85 1016.3
20260906170014 26 214 8.0 17.7 0.00 0.00 0.00 85 1011.6
20260906165520 26 205 9.7 19.3 0.00 0.00 0.00 85 1016.4
20260906165017 26 214 8.0 16.1 0.00 0.00 0.00 85 1016.4
20260906164532 26 192 11.3 17.7 0.00 0.00 0.00 85 1016.4
20260906164512 26 203 9.7 17.7 0.00 0.00 0.00 85 1011.7
20260906164016 26 204 11.3 24.1 0.00 0.00 0.00 85 1016.5
20260906163518 26 197 14.5 24.1 0.00 0.00 0.00 84 1016.5
20260906163033 26 205 8.0 22.5 0.00 0.00 0.00 84 1016.5
20260906163007 26 207 8.0 22.5 0.00 0.00 0.00 85 1011.8
20260906162519 26 167 12.9 25.7 0.00 0.00 0.00 84 1016.6
20260906162018 26 205 12.9 25.7 0.00 0.00 0.00 84 1016.6
20260906161532 26 186 12.9 20.9 0.00 0.00 0.00 83 1016.6
20260906161506 26 215 11.3 20.9 0.00 0.00 0.00 84 1011.8
20260906161009 26 200 12.9 20.9 0.00 0.00 0.00 83 1016.5
20260906160511 26 211 11.3 22.5 0.00 0.00 0.00 83 1016.4
20260906160033 26 159 11.3 22.5 0.00 0.00 0.00 83 1016.4
20260906160006 26 164 9.7 22.5 0.00 0.00 0.00 84 1011.6
20260906155514 26 182 11.3 22.5 0.00 0.00 0.00 83 1016.4
20260906155015 26 215 9.7 20.9 0.00 0.00 0.00 83 1016.4
20260906154530 26 205 9.7 17.7 0.00 0.00 0.00 83 1016.3
20260906154508 26 190 9.7 17.7 0.00 0.00 0.00 83 1011.4
20260906154017 27 184 8.0 12.9 0.00 0.00 0.00 83 1016.1
20260906153515 26 191 4.8 11.3 0.00 0.00 0.00 83 1016.0
20260906153031 26 193 6.4 11.3 0.00 0.00 0.00 83 1015.9
20260906153001 26 193 6.4 11.3 0.00 0.00 0.00 84 1011.0
20260906152518 26 178 8.0 12.9 0.00 0.00 0.00 84 1015.6
20260906152019 26 134 8.0 14.5 0.00 0.00 0.00 84 1015.7
20260906151611 26 140 6.4 14.5 0.00 0.00 0.00 84 1010.9
20260906151534 26 153 8.0 14.5 0.00 0.00 0.00 84 1015.7
20260906151018 26 160 4.8 14.5 0.00 0.00 0.00 85 1015.8
20260906150519 26 155 6.4 12.9 0.00 0.00 0.00 85 1015.7
20260906150103 26 181 8.0 12.9 0.00 0.00 0.00 85 1011.0
20260906150026 26 131 6.4 12.9 0.00 0.00 0.00 85 1015.7
20260906145511 26 160 8.0 12.9 0.00 0.00 0.00 85 1015.7
20260906145012 26 166 8.0 12.9 0.00 0.00 0.00 86 1015.8
20260906144556 26 156 4.8 12.9 0.00 0.00 0.00 87 1011.0
20260906144529 26 208 6.4 14.5 0.00 0.00 0.00 87 1015.7
20260906144013 25 173 9.7 17.7 0.00 0.00 0.00 87 1015.7
20260906143514 25 143 9.7 17.7 0.00 0.00 0.00 87 1015.7
20260906143115 25 174 9.7 17.7 0.00 0.00 0.00 87 1011.0
20260906143038 25 150 9.7 17.7 0.00 0.00 0.00 87 1015.7
20260906142514 25 204 11.3 17.7 0.00 0.00 0.00 87 1015.8
20260906142019 25 177 6.4 17.7 0.00 0.00 0.00 87 1015.7
20260906141549 25 125 8.0 17.7 0.00 0.00 0.00 88 1011.1
20260906141519 25 155 8.0 17.7 0.00 0.00 0.00 87 1015.8
20260906141008 25 117 9.7 16.1 0.00 0.00 0.00 87 1015.8
20260906140514 25 132 3.2 16.1 0.00 0.00 0.00 88 1015.6
20260906140050 25 98 6.4 16.1 0.00 0.00 0.00 88 1011.0
20260906140023 25 136 6.4 16.1 0.00 0.00 0.00 88 1015.6
20260906135512 25 181 11.3 16.1 0.00 0.00 0.00 87 1015.7
20260906135009 25 128 6.4 11.3 0.00 0.00 0.00 88 1015.6
20260906134553 25 119 6.4 11.3 0.00 0.00 0.00 88 1011.1
20260906134524 24 112 6.4 11.3 0.00 0.00 0.00 88 1015.6
20260906134012 24 198 4.8 12.9 0.00 0.00 0.00 88 1015.6
20260906133514 24 119 4.8 12.9 0.00 0.00 0.00 88 1015.5
20260906133046 24 150 4.8 12.9 0.00 0.00 0.00 89 1011.0
20260906133038 24 89 4.8 12.9 0.00 0.00 0.00 89 1015.3
20260906132517 23 96 3.2 9.7 0.00 0.00 0.00 89 1015.3
20260906132013 23 85 3.2 8.0 0.00 0.00 0.00 89 1015.2
20260906131548 23 115 3.2 11.3 0.00 0.00 0.00 90 1010.9
20260906131531 23 103 4.8 11.3 0.00 0.00 0.00 90 1015.1
20260906131018 23 222 4.8 11.3 0.00 0.00 0.00 91 1015.0
20260906130521 23 130 4.8 9.7 0.00 0.00 0.00 91 1015.2
20260906130047 23 109 4.8 9.7 0.00 0.00 0.00 92 1010.8
20260906130018 23 121 4.8 12.9 0.00 0.00 0.00 91 1015.2
20260906125507 23 116 4.8 12.9 0.00 0.00 0.00 91 1015.1
20260906125011 22 129 4.8 12.9 0.00 0.00 0.00 91 1015.0
20260906124545 22 146 3.2 9.7 0.00 0.00 0.00 92 1010.4
20260906124525 22 121 4.8 9.7 0.00 0.00 0.00 92 1014.9
20260906124010 22 105 4.8 8.0 0.00 0.00 0.00 92 1014.7
20260906123516 22 183 3.2 8.0 0.00 0.00 0.00 92 1014.8
20260906123111 22 99 1.6 6.4 0.00 0.00 0.00 92 1010.4
20260906123027 22 60 3.2 8.0 0.00 0.00 0.00 92 1014.7
20260906122514 22 77 3.2 8.0 0.00 0.00 0.00 91 1014.7
20260906122014 22 84 3.2 11.3 0.00 0.00 0.00 91 1014.6
20260906121542 22 127 4.8 11.3 0.00 0.00 0.00 92 1010.2
20260906121531 22 108 6.4 11.3 0.00 0.00 0.00 91 1014.5
20260906121014 22 108 4.8 11.3 0.00 0.00 0.00 91 1014.6
20260906120521 22 126 4.8 14.5 0.00 0.00 0.00 91 1014.6
20260906120038 22 106 6.4 14.5 0.00 0.00 0.00 92 1010.2
20260906120036 22 117 8.0 14.5 0.00 0.00 0.00 91 1014.6
20260906115506 22 69 4.8 11.3 0.00 0.00 0.00 91 1014.5
20260906115007 22 115 6.4 11.3 0.00 0.00 0.00 91 1014.6
20260906114538 22 70 3.2 11.3 0.00 0.00 0.00 91 1010.1
20260906114534 22 126 3.2 11.3 0.00 0.00 0.00 91 1014.5
20260906114014 22 127 3.2 11.3 0.00 0.00 0.00 91 1014.4
20260906113512 22 129 4.8 8.0 0.00 0.00 0.00 91 1014.4
20260906113041 22 117 3.2 11.3 0.00 0.00 0.00 91 1010.1
20260906113027 22 117 3.2 11.3 0.00 0.00 0.00 90 1014.5
20260906112502 22 129 4.8 11.3 0.00 0.00 0.00 90 1014.6
20260906112003 22 117 4.8 8.0 0.00 0.00 0.00 90 1014.7
20260906111536 22 110 3.2 8.0 0.00 0.00 0.00 91 1010.2
20260906111508 22 103 4.8 8.0 0.00 0.00 0.00 90 1014.7
20260906111003 22 89 3.2 6.4 0.00 0.00 0.00 90 1014.7
20260906110505 22 91 3.2 8.0 0.00 0.00 0.00 90 1014.7
20260906110036 22 121 3.2 8.0 0.00 0.00 0.00 90 1010.3
20260906110014 22 106 3.2 8.0 0.00 0.00 0.00 90 1014.7
20260906105503 22 90 4.8 8.0 0.00 0.00 0.00 89 1014.7
20260906105007 22 115 3.2 8.0 0.00 0.00 0.00 89 1014.8
20260906104535 22 87 3.2 8.0 0.00 0.00 0.00 90 1010.4
20260906104521 22 110 4.8 8.0 0.00 0.00 0.00 89 1014.8
20260906104006 22 104 3.2 8.0 0.00 0.00 0.00 89 1014.8
20260906103508 22 120 3.2 9.7 0.00 0.00 0.00 89 1014.9
20260906103035 22 106 1.6 9.7 0.00 0.00 0.00 89 1010.4
20260906103023 22 87 3.2 11.3 0.00 0.00 0.00 89 1014.8
20260906102512 22 63 3.2 11.3 0.00 0.00 0.00 88 1014.8
20260906102015 22 99 3.2 8.0 0.00 0.00 0.00 88 1014.8
20260906101533 22 91 1.6 4.8 0.00 0.00 0.00 89 1010.4
20260906101531 22 85 1.6 4.8 0.00 0.00 0.00 88 1014.8
20260906101002 22 113 3.2 4.8 0.00 0.00 0.00 88 1014.9
20260906100506 22 114 1.6 6.4 0.00 0.00 0.00 88 1015.0
20260906100033 22 129 3.2 6.4 0.00 0.00 0.00 89 1010.4
20260906100012 22 155 3.2 6.4 0.00 0.00 0.00 88 1015.1
20260906095503 22 117 3.2 6.4 0.00 0.00 0.00 88 1015.1
20260906095003 22 105 0.0 6.4 0.00 0.00 0.00 88 1015.0
20260906094532 22 98 3.2 6.4 0.00 0.00 0.00 88 1010.5
20260906094514 22 101 3.2 6.4 0.00 0.00 0.00 88 1014.9
20260906094010 22 123 3.2 9.7 0.00 0.00 0.00 88 1015.0
20260906093508 22 154 4.8 9.7 0.00 0.00 0.00 88 1014.9
20260906093033 22 157 3.2 8.0 0.00 0.00 0.00 88 1010.5
20260906093023 22 130 3.2 8.0 0.00 0.00 0.00 88 1014.9
20260906092508 22 154 4.8 8.0 0.00 0.00 0.00 88 1015.0
20260906092015 22 136 1.6 6.4 0.00 0.00 0.00 88 1015.0
20260906091533 22 115 1.6 8.0 0.00 0.00 0.00 88 1010.6
20260906091526 22 131 3.2 8.0 0.00 0.00 0.00 88 1015.1
20260906091012 22 139 4.8 8.0 0.00 0.00 0.00 87 1015.0
20260906090513 22 160 3.2 8.0 0.00 0.00 0.00 87 1015.0
20260906090030 22 139 1.6 8.0 0.00 0.00 0.00 87 1014.9
20260906090027 22 153 1.6 8.0 0.00 0.00 0.00 87 1010.4
20260906085503 22 127 1.6 6.4 0.00 0.00 0.00 87 1014.8
20260906085003 22 146 3.2 6.4 0.00 0.00 0.00 86 1014.8
20260906084526 22 146 1.6 4.8 0.00 0.00 0.00 86 1010.3
20260906084509 22 108 1.6 6.4 0.00 0.00 0.00 86 1014.7
20260906084006 22 119 3.2 8.0 0.00 0.00 0.00 86 1014.7
20260906083508 22 136 3.2 8.0 0.00 0.00 0.00 85 1014.8
20260906083032 22 139 1.6 6.4 0.00 0.00 0.00 85 1010.5
20260906083015 22 140 3.2 6.4 0.00 0.00 0.00 85 1014.7
20260906082508 23 118 1.6 4.8 0.00 0.00 0.00 84 1014.7
20260906082008 23 123 1.6 4.8 0.00 0.00 0.00 84 1014.6
20260906081521 23 107 1.6 6.4 0.00 0.00 0.00 84 1014.6
20260906081011 23 77 1.6 6.4 0.00 0.00 0.00 84 1014.6
20260906080512 23 116 1.6 6.4 0.00 0.00 0.00 83 1014.4
20260906080030 23 122 0.0 11.3 0.00 0.00 0.00 83 1014.6
20260906080027 23 122 0.0 11.3 0.00 0.00 0.00 84 1010.1
20260906075511 23 115 3.2 11.3 0.00 0.00 0.00 83 1014.5
20260906075016 23 110 4.8 11.3 0.00 0.00 0.00 83 1014.5
20260906074530 23 86 3.2 11.3 0.00 0.00 0.00 83 1014.5
20260906074519 23 110 1.6 11.3 0.00 0.00 0.00 83 1010.1
20260906074003 23 75 4.8 8.0 0.00 0.00 0.00 82 1014.4
20260906073503 23 103 3.2 6.4 0.00 0.00 0.00 82 1014.5
20260906073018 23 77 3.2 8.0 0.00 0.00 0.00 82 1010.0
20260906073010 23 110 3.2 8.0 0.00 0.00 0.00 82 1014.4
20260906072504 23 117 3.2 8.0 0.00 0.00 0.00 82 1014.4
20260906072008 23 103 3.2 8.0 0.00 0.00 0.00 81 1014.5
20260906071517 23 124 3.2 8.0 0.00 0.00 0.00 81 1014.4
20260906071515 23 103 3.2 8.0 0.00 0.00 0.00 82 1010.1
20260906071010 23 96 4.8 8.0 0.00 0.00 0.00 81 1014.4
20260906070510 23 98 3.2 4.8 0.00 0.00 0.00 81 1014.4
20260906070026 23 125 0.0 4.8 0.00 0.00 0.00 81 1014.4
20260906070014 23 143 0.0 3.2 0.00 0.00 0.00 81 1010.1
20260906065511 23 138 1.6 8.0 0.00 0.00 0.00 80 1014.4
20260906065014 23 140 3.2 8.0 0.00 0.00 0.00 80 1014.3
20260906064527 23 122 3.2 8.0 0.00 0.00 0.00 80 1014.3
20260906064513 23 124 3.2 8.0 0.00 0.00 0.00 81 1010.0
20260906064019 23 127 1.6 6.4 0.00 0.00 0.00 80 1014.4
20260906063516 23 136 3.2 6.4 0.00 0.00 0.00 80 1014.4
20260906063030 23 178 4.8 6.4 0.00 0.00 0.00 80 1014.5
20260906063011 23 172 3.2 6.4 0.00 0.00 0.00 80 1010.0
20260906062504 23 148 3.2 6.4 0.00 0.00 0.00 80 1014.5
20260906062008 24 175 3.2 6.4 0.00 0.00 0.00 79 1014.6
20260906061513 24 116 1.6 6.4 0.00 0.00 0.00 79 1014.5
20260906061509 24 108 1.6 6.4 0.00 0.00 0.00 80 1010.1
20260906061007 24 131 3.2 6.4 0.00 0.00 0.00 79 1014.5
20260906060510 24 135 3.2 11.3 0.00 0.00 0.00 79 1014.5
20260906060027 24 126 3.2 11.3 0.00 0.00 0.00 78 1014.4
20260906060006 24 126 3.2 11.3 0.00 0.00 0.00 79 1009.9
20260906055509 24 158 4.8 11.3 0.00 0.00 0.00 78 1014.4
20260906055011 25 151 4.8 11.3 0.00 0.00 0.00 77 1014.5
20260906054541 25 176 6.4 11.3 0.00 0.00 0.00 77 1014.5
20260906054504 25 154 4.8 11.3 0.00 0.00 0.00 78 1010.1
20260906054015 25 160 4.8 12.9 0.00 0.00 0.00 77 1014.5
20260906053513 25 155 6.4 12.9 0.00 0.00 0.00 77 1014.4
20260906053027 25 170 8.0 14.5 0.00 0.00 0.00 77 1014.3
20260906053001 25 143 6.4 14.5 0.00 0.00 0.00 77 1009.9
20260906052514 25 130 8.0 14.5 0.00 0.00 0.00 77 1014.4
20260906052016 25 149 4.8 9.7 0.00 0.00 0.00 77 1014.4
20260906051601 25 150 3.2 9.7 0.00 0.00 0.00 78 1009.9
20260906051529 25 157 3.2 11.3 0.00 0.00 0.00 77 1014.4
20260906051007 25 164 4.8 11.3 0.00 0.00 0.00 77 1014.4
20260906050506 25 147 4.8 14.5 0.00 0.00 0.00 78 1014.6
20260906050056 25 197 6.4 14.5 0.00 0.00 0.00 78 1010.0
20260906050014 25 148 6.4 14.5 0.00 0.00 0.00 78 1014.5
20260906045509 25 88 6.4 12.9 0.00 0.00 0.00 79 1014.3
20260906045009 25 141 6.4 12.9 0.00 0.00 0.00 79 1014.4
20260906044554 25 139 3.2 12.9 0.00 0.00 0.00 79 1010.0
20260906044523 25 113 6.4 12.9 0.00 0.00 0.00 79 1014.6
20260906044016 25 159 4.8 14.5 0.00 0.00 0.00 79 1014.6
20260906043510 25 137 6.4 14.5 0.00 0.00 0.00 79 1014.7
20260906043100 25 104 4.8 12.9 0.00 0.00 0.00 80 1010.3
20260906043030 25 110 4.8 11.3 0.00 0.00 0.00 79 1014.9
20260906042511 25 72 6.4 11.3 0.00 0.00 0.00 80 1014.9
20260906042014 24 101 4.8 11.3 0.00 0.00 0.00 80 1015.0
20260906041558 24 94 4.8 11.3 0.00 0.00 0.00 81 1010.4
20260906041531 24 76 3.2 11.3 0.00 0.00 0.00 80 1014.9
20260906041014 24 60 4.8 8.0 0.00 0.00 0.00 80 1014.9
20260906040515 24 63 4.8 9.7 0.00 0.00 0.00 80 1014.8
20260906040058 24 39 6.4 12.9 0.00 0.00 0.00 79 1014.5
20260906040052 24 53 4.8 9.7 0.00 0.00 0.00 80 1010.0
20260906035507 24 68 6.4 12.9 0.00 0.00 0.00 79 1014.2
20260906035008 24 55 8.0 12.9 0.00 0.00 0.00 78 1014.1
20260906034552 25 67 4.8 11.3 0.00 0.00 0.00 78 1009.7
20260906034516 25 63 6.4 11.3 0.00 0.00 0.00 77 1014.3
20260906034009 25 38 4.8 11.3 0.00 0.00 0.00 76 1014.1
20260906033510 25 75 4.8 11.3 0.00 0.00 0.00 75 1014.2
20260906033104 25 96 4.8 12.9 0.00 0.00 0.00 75 1009.7
20260906033038 25 125 4.8 12.9 0.00 0.00 0.00 75 1014.4
20260906032514 25 80 4.8 12.9 0.00 0.00 0.00 74 1014.2
20260906032014 25 104 3.2 8.0 0.00 0.00 0.00 74 1014.2
20260906031550 25 78 1.6 8.0 0.00 0.00 0.00 75 1009.7
20260906031527 25 58 3.2 8.0 0.00 0.00 0.00 75 1014.3
20260906031014 25 75 3.2 8.0 0.00 0.00 0.00 75 1014.4
20260906030516 25 86 4.8 6.4 0.00 0.00 0.00 74 1014.5
20260906030052 25 84 1.6 6.4 0.00 0.00 0.00 74 1010.0
20260906030030 25 73 3.2 8.0 0.00 0.00 0.00 73 1014.6
20260906025518 25 97 3.2 8.0 0.00 0.00 0.00 72 1014.6
20260906025018 25 94 1.6 4.8 0.00 0.00 0.00 72 1014.7
20260906024551 25 101 1.6 4.8 0.00 0.00 0.00 73 1010.1
20260906024513 25 77 1.6 4.8 0.00 0.00 0.00 72 1014.6
20260906024006 25 118 1.6 6.4 0.00 0.00 0.00 72 1014.6
20260906023508 26 143 1.6 6.4 0.00 0.00 0.00 71 1014.7
20260906023054 26 94 0.0 4.8 0.00 0.00 0.00 71 1010.0
20260906023024 26 117 0.0 4.8 0.00 0.00 0.00 71 1014.6
20260906022510 26 110 3.2 4.8 0.00 0.00 0.00 70 1014.5
20260906022010 26 143 0.0 3.2 0.00 0.00 0.00 70 1014.4
20260906021548 26 86 0.0 6.4 0.00 0.00 0.00 71 1009.7
20260906021526 26 83 0.0 6.4 0.00 0.00 0.00 71 1014.3
20260906021014 26 106 1.6 6.4 0.00 0.00 0.00 71 1014.1
20260906020516 26 103 3.2 6.4 0.00 0.00 0.00 71 1014.1
20260906020100 26 94 1.6 6.4 0.00 0.00 0.00 71 1009.3
20260906020033 26 84 1.6 6.4 0.00 0.00 0.00 70 1014.0
20260906015503 26 79 3.2 6.4 0.00 0.00 0.00 70 1014.0
20260906015004 26 122 3.2 4.8 0.00 0.00 0.00 69 1014.1
20260906014547 26 114 0.0 3.2 0.00 0.00 0.00 69 1009.4
20260906014509 27 124 0.0 3.2 0.00 0.00 0.00 69 1014.1
20260906014002 26 129 0.0 0.0 0.00 0.00 0.00 69 1014.2
20260906013506 26 153 0.0 0.0 0.00 0.00 0.00 69 1014.2
20260906013057 26 153 0.0 0.0 0.00 0.00 0.00 70 1009.6
20260906013006 26 153 0.0 0.0 0.00 0.00 0.00 69 1014.2
20260906012502 27 153 0.0 0.0 0.00 0.00 0.00 68 1014.2
20260906012005 27 153 0.0 0.0 0.00 0.00 0.00 68 1014.2
20260906011559 27 153 0.0 0.0 0.00 0.00 0.00 68 1009.7
20260906011514 27 153 0.0 0.0 0.00 0.00 0.00 67 1014.3
20260906011003 27 153 0.0 0.0 0.00 0.00 0.00 68 1014.4
20260906010502 27 153 0.0 0.0 0.00 0.00 0.00 66 1014.6
20260906010046 27 153 0.0 0.0 0.00 0.00 0.00 66 1009.9
20260906010014 27 153 0.0 0.0 0.00 0.00 0.00 66 1014.5
20260906005502 27 153 0.0 1.6 0.00 0.00 0.00 64 1014.6
20260906005003 28 153 0.0 3.2 0.00 0.00 0.00 64 1014.7
20260906004548 28 153 0.0 3.2 0.00 0.00 0.00 64 1010.0
20260906004509 28 153 0.0 4.8 0.00 0.00 0.00 63 1014.8
20260906004002 28 197 0.0 4.8 0.00 0.00 0.00 63 1014.6
20260906003501 28 108 0.0 4.8 0.00 0.00 0.00 64 1014.3
20260906003045 28 141 0.0 1.6 0.00 0.00 0.00 65 1009.4
20260906003010 28 141 0.0 3.2 0.00 0.00 0.00 64 1014.3
20260906002504 28 115 0.0 6.4 0.00 0.00 0.00 64 1014.2
20260906002003 28 167 1.6 6.4 0.00 0.00 0.00 63 1014.3
20260906001546 28 170 1.6 6.4 0.00 0.00 0.00 63 1009.6
20260906001510 28 173 3.2 6.4 0.00 0.00 0.00 62 1014.3
20260906001003 28 183 1.6 6.4 0.00 0.00 0.00 62 1014.2
20260906000502 29 162 1.6 8.0 0.00 0.00 0.00 61 1014.1
20260906000053 29 131 1.6 8.0 0.00 0.00 0.00 61 1009.3
20260906000010 29 131 3.2 11.3 0.00 0.00 0.00 60 1014.0
20260905235503 29 127 3.2 11.3 0.00 0.00 0.00 59 1013.9
20260905235006 30 134 3.2 8.0 0.00 0.00 0.00 59 1013.9
20260905234545 30 149 3.2 8.0 0.00 0.00 0.00 58 1009.1
20260905234510 30 126 4.8 12.9 0.00 0.00 0.00 58 1013.9
20260905234003 30 86 3.2 12.9 0.00 0.00 0.00 57 1014.0
20260905233504 30 113 4.8 11.3 0.00 0.00 0.00 56 1013.9
20260905233043 30 121 3.2 9.7 0.00 0.00 0.00 57 1009.1
20260905233009 30 124 4.8 11.3 0.00 0.00 0.00 56 1013.9
20260905232506 31 139 3.2 16.1 0.00 0.00 0.00 55 1013.9
20260905232003 31 127 4.8 16.1 0.00 0.00 0.00 53 1013.8
20260905231542 31 150 8.0 16.1 0.00 0.00 0.00 52 1008.6
20260905231517 31 110 8.0 14.5 0.00 0.00 0.00 51 1013.5
20260905231005 32 141 6.4 17.7 0.00 0.00 0.00 50 1013.3
20260905230506 32 136 6.4 17.7 0.00 0.00 0.00 50 1013.1
20260905230041 32 203 8.0 17.7 0.00 0.00 0.00 50 1008.0
20260905230013 32 59 11.3 17.7 0.00 0.00 0.00 49 1012.9
20260905225505 32 138 6.4 17.7 0.00 0.00 0.00 49 1012.7
20260905225009 32 131 6.4 19.3 0.00 0.00 0.00 51 1012.6
20260905224548 32 136 9.7 22.5 0.00 0.00 0.00 50 1007.8
20260905224527 32 136 11.3 22.5 0.00 0.00 0.00 50 1012.6
20260905224006 32 8 11.3 22.5 0.00 0.00 0.00 50 1012.7
20260905223505 32 99 9.7 19.3 0.00 0.00 0.00 51 1012.8
20260905223039 32 151 6.4 16.1 0.00 0.00 0.00 52 1008.0
20260905223020 32 95 8.0 16.1 0.00 0.00 0.00 51 1012.8
20260905222503 32 117 8.0 17.7 0.00 0.00 0.00 51 1012.9
20260905222008 32 129 8.0 19.3 0.00 0.00 0.00 51 1012.9
20260905221538 32 85 9.7 19.3 0.00 0.00 0.00 50 1008.2
20260905221532 32 110 9.7 19.3 0.00 0.00 0.00 49 1012.9
20260905221017 32 56 8.0 24.1 0.00 0.00 0.00 51 1013.0
20260905220519 32 135 9.7 24.1 0.00 0.00 0.00 50 1013.0
20260905220037 32 113 11.3 20.9 0.00 0.00 0.00 51 1008.2
20260905220035 32 101 11.3 20.9 0.00 0.00 0.00 50 1013.0
20260905215519 32 136 6.4 20.9 0.00 0.00 0.00 53 1013.0
20260905215023 32 68 6.4 22.5 0.00 0.00 0.00 52 1013.1
20260905214536 32 53 9.7 22.5 0.00 0.00 0.00 52 1008.3
20260905214523 32 59 11.3 22.5 0.00 0.00 0.00 51 1013.1
20260905214010 32 140 8.0 16.1 0.00 0.00 0.00 47 1013.1
20260905213514 32 114 8.0 14.5 0.00 0.00 0.00 45 1013.3
20260905213037 32 109 6.4 16.1 0.00 0.00 0.00 46 1008.3
20260905213029 32 63 8.0 16.1 0.00 0.00 0.00 45 1013.2
20260905212519 32 108 6.4 19.3 0.00 0.00 0.00 46 1013.0
20260905212012 32 134 6.4 19.3 0.00 0.00 0.00 46 1013.1
20260905211542 32 129 8.0 19.3 0.00 0.00 0.00 46 1013.2
20260905211014 32 106 9.7 19.3 0.00 0.00 0.00 46 1013.2
20260905210520 32 120 12.9 19.3 0.00 0.00 0.00 46 1013.3
20260905210041 32 49 9.7 20.9 0.00 0.00 0.00 47 1013.3
20260905210032 32 107 9.7 17.7 0.00 0.00 0.00 47 1008.5
20260905205519 32 77 9.7 20.9 0.00 0.00 0.00 47 1013.2
20260905205019 32 107 8.0 19.3 0.00 0.00 0.00 49 1013.2
20260905204536 32 81 6.4 25.7 0.00 0.00 0.00 50 1008.6
20260905204531 32 56 8.0 25.7 0.00 0.00 0.00 49 1013.3
20260905204016 32 109 11.3 25.7 0.00 0.00 0.00 47 1013.3
20260905203517 32 120 8.0 20.9 0.00 0.00 0.00 47 1013.2